Journey to APT Taipei Poker Classic | Over 270 seats GTD | Warm Up Mega Satellites starts 15 July | $50K Main Event Bonus

Bounty Hunters Series 2024

$50M Bounty Hunters Series

7th July - 29th July 2024

Calling all Bounty Hunters! The bounties have been posted, and it’s time to take on the challenge and collect your well-deserved bounties!

This summer, the Bounty Hunters Series comes with a $50,000,000 GTD and a $1,000,000 Bounty Leaderboard. Take out your opponents, climb the Bounty Leaderboard, and be the next Bounty King!

The hunt begins on 7th July and will last all the way through 29th July 2024.

It’s the Summer Hunting Period!

Bounty hunting is hard, but the bounties are well worth it. With $50,000,000 in total guaranteed prize pools, we are sure bounty hunters all over the world will come to battle it out.

Hone your poker skills and seize the moment when the perfect opportunity presents itself!

50m Guaranteee
Total $50M GTD

Biggest Bounties in Summer!

mystery bounty main event
Mystery Bounty Main Event

$4M GTD Prize Pool, 10 x $100K Top Bounties!

bounty leaderboard
$1M Bounty Leaderboard

$40K Daily Leaderboard, More KO, More Bounty!

Play the $108 Mystery Bounty Main Event, Take home a share of the $4,000,000 GTD prize pool.

Better yet – be one of the 10 players to win the $100,000 Top Bounty!

Can you imagine taking home a $100,000 prize just by knocking out one player?

Highlights

$108 Mystery Bounty Main Event - $4M GTD

$25 Mystery Bounty Mini Main - $2M GTD

$50 Global MILLION$ Bounty Edition - $1M GTD

A Record-Breaker! TEN $100K Mystery Bounties!

The Best ROI! Get the most value for your buck!

The World’s Favorite Tournament now comes with a Special Bounty edition!

Special Bounty Hunter Series Editions On Sundays

The Biggest Bounty Tournaments!

$1,000,000 Bounty King Leaderboard

Be the next Bounty King by getting the most knockouts!

Over $40K in Prizes Every Day!

(1 KO = 1 Leaderboard Point )

Full Event Schedule

Date Day Time (UTC) Time (HKT) Event Name Buy-in Guarantee
Jul 7 Sun 12:30 20:30 $215 Sunday Bounty Blast-Off $215 $35,000
Jul 7 Sun 12:30 20:30 $25 Sunday Bounty Blast-Off $25 $100,000
Jul 7 Sun 13:30 21:30 $10.80 Sunday Bounty Seven-Max $11 $50,000
Jul 7 Sun 13:30 21:30 $108 Sunday Bounty Seven-Max $108 $70,000
Jul 7 Sun 14:05 22:05 $10 Speed Racer POWER HOUR [10 BB] $10 $12,500
Jul 7 Sun 14:15 22:15 $25 Speed Racer POWER HOUR [10 BB] $25 $12,500
Jul 7 Sun 14:25 22:25 $50 Speed Racer POWER HOUR [10 BB] $50 $12,500
Jul 7 Sun 14:30 22:30 $840 Sunday Bounty Warm-Up HR $840 $75,000
Jul 7 Sun 14:30 22:30 $88 Sunday Bounty Warm-Up $88 $175,000
Jul 7 Sun 14:35 22:35 $100 Speed Racer POWER HOUR [10 BB] $100 $10,000
Jul 7 Sun 14:45 22:45 $200 Speed Racer POWER HOUR [10 BB] $200 $12,500
Jul 7 Sun 15:30 23:30 $44 Sunday Bounty Forty Stack $44 $200,000
Jul 7 Sun 16:30 00:30 (+1) $525 Bounty Hunters HR Main Event, $1M GTD $525 $1,000,000
Jul 7 Sun 16:30 00:30 (+1) $54 Bounty Hunters Sunday Main Event $54 $500,000
Jul 7 Sun 17:30 01:30 (+1) $215 Sunday Bounty Big Game $215 $350,000
Jul 7 Sun 17:30 01:30 (+1) $21.60 Sunday Bounty Big Game $22 $200,000
Jul 7 Sun 17:40 01:40 (+1) $215 Sunday Omaholic Big Game $215 $50,000
Jul 7 Sun 19:00 03:00 (+1) $1,050 Sunday HR Main Event [Bounty Edition] $1,050 $300,000
Jul 7 Sun 19:30 03:30 (+1) $320 GGMasters Bounty Special Edition $320 $400,000
Jul 7 Sun 19:30 03:30 (+1) $32 Sunday Bounty King $32 $175,000
Jul 7 Sun 19:40 03:40 (+1) $1,050 Sunday Omaholic Bounty HR $1,050 $50,000
Jul 7 Sun 19:40 03:40 (+1) $150 Sunday Omaholic Bounty Main $150 $100,000
Jul 7 Sun 20:00 04:00 (+1) $108 Sunday Showdown [Mystery Bounty] $108 $400,000
Jul 7 Sun 20:00 04:00 (+1) $15 Mini Showdown [Mystery Bounty] $15 $250,000
Jul 7 Sun 21:00 05:00 (+1) $1,050 Sunday HEATER HR [Bounty Turbo] $1,050 $75,000
Jul 7 Sun 21:00 05:00 (+1) $215 Sunday HEATER [Bounty Turbo] $215 $125,000
Jul 7 Sun 21:00 05:00 (+1) $25 Sunday Mini HEATER [Bounty Turbo] $25 $100,000
Jul 7 Sun 22:30 06:30 (+1) $77 LUCKY SEVENS [Bounty Turbo] $77 $125,000
Jul 7 Sun 23:30 07:30 (+1) $215 Sunday Last Call [Bounty Hyper] $215 $60,000
Jul 8 Mon 00:00 08:00 $88 Midnight Madness [Bounty Hyper] $88 $40,000
Jul 8 Mon 01:05 09:05 $10 Speed Racer POWER HOUR [10 BB] $10 $5,000
Jul 8 Mon 01:15 09:15 $25 Speed Racer POWER HOUR [10 BB] $25 $7,000
Jul 8 Mon 01:25 09:25 $50 Speed Racer POWER HOUR [10 BB] $50 $6,000
Jul 8 Mon 01:35 09:35 $100 Speed Racer POWER HOUR [10 BB] $100 $7,000
Jul 8 Mon 01:45 09:45 $200 Speed Racer POWER HOUR [10 BB] $200 $7,000
Jul 8 Mon 12:30 20:30 $25 Bounty Blast-Off $25 $50,000
Jul 8 Mon 13:30 21:30 $10.80 Monday Hangover [Variable Levels] $11 $30,000
Jul 8 Mon 14:05 22:05 $10 Speed Racer POWER HOUR [10 BB] $10 $12,500
Jul 8 Mon 14:15 22:15 $25 Speed Racer POWER HOUR [10 BB] $25 $12,500
Jul 8 Mon 14:25 22:25 $50 Speed Racer POWER HOUR [10 BB] $50 $12,500
Jul 8 Mon 14:30 22:30 $88 Bounty Warm-Up $88 $60,000
Jul 8 Mon 14:35 22:35 $100 Speed Racer POWER HOUR [10 BB] $100 $10,000
Jul 8 Mon 14:45 22:45 $200 Speed Racer POWER HOUR [10 BB] $200 $12,500
Jul 8 Mon 15:30 23:30 $44 Bounty Forty Stack $44 $80,000
Jul 8 Mon 16:30 00:30 (+1) $525 Bounty Hunters HR [6-Max] $525 $300,000
Jul 8 Mon 16:30 00:30 (+1) $54 Bounty Hunters Daily Main [6-Max] $54 $250,000
Jul 8 Mon 17:30 01:30 (+1) $215 Bounty Big Game $215 $150,000
Jul 8 Mon 17:30 01:30 (+1) $25 Bounty Big Game $25 $100,000
Jul 8 Mon 18:00 02:00 (+1) $1,050 Monday Monster Stack HR [Bounty Edition] $1,050 $200,000
Jul 8 Mon 18:00 02:00 (+1) $150 Monday Monster Stack [Bounty Edition] $150 $150,000
Jul 8 Mon 18:00 02:00 (+1) $15 Mini Monday Monster Stack [Bounty Edition] $15 $75,000
Jul 8 Mon 19:30 03:30 (+1) $32 Bounty King $32 $70,000
Jul 8 Mon 19:40 03:40 (+1) $525 Omaholic Bounty Fifty Stack $525 $12,500
Jul 8 Mon 19:40 03:40 (+1) $54 Omaholic Bounty Fifty Stack $54 $15,000
Jul 8 Mon 21:00 05:00 (+1) $215 Daily HEATER [Bounty Turbo] $215 $50,000
Jul 8 Mon 22:00 06:00 (+1) $66 SUPER SIX [Bounty Turbo] $66 $40,000
Jul 8 Mon 22:30 06:30 (+1) $25 HYPER 5-MAX $25 $25,000
Jul 9 Tue 00:00 08:00 $88 Midnight Madness [Bounty Hyper] $88 $40,000
Jul 9 Tue 01:05 09:05 $10 Speed Racer POWER HOUR [10 BB] $10 $5,000
Jul 9 Tue 01:15 09:15 $25 Speed Racer POWER HOUR [10 BB] $25 $7,000
Jul 9 Tue 01:25 09:25 $50 Speed Racer POWER HOUR [10 BB] $50 $6,000
Jul 9 Tue 01:35 09:35 $100 Speed Racer POWER HOUR [10 BB] $100 $7,000
Jul 9 Tue 01:45 09:45 $200 Speed Racer POWER HOUR [10 BB] $200 $7,000
Jul 9 Tue 13:30 21:30 $10.80 Bounty Hunters 6-Max $11 $35,000
Jul 9 Tue 14:05 22:05 $10 Speed Racer POWER HOUR [10 BB] $10 $12,500
Jul 9 Tue 14:15 22:15 $25 Speed Racer POWER HOUR [10 BB] $25 $12,500
Jul 9 Tue 14:25 22:25 $50 Speed Racer POWER HOUR [10 BB] $50 $12,500
Jul 9 Tue 14:35 22:35 $100 Speed Racer POWER HOUR [10 BB] $100 $10,000
Jul 9 Tue 14:45 22:45 $200 Speed Racer POWER HOUR [10 BB] $200 $12,500
Jul 9 Tue 16:30 00:30 (+1) $525 Bounty Hunters HR [Deepstack] $525 $200,000
Jul 9 Tue 16:30 00:30 (+1) $54 Bounty Hunters Daily Main [Deepstack] $54 $250,000
Jul 9 Tue 18:00 02:00 (+1) $1,050 Tuesday Classic HR [Bounty Edition] $1,050 $150,000
Jul 9 Tue 18:00 02:00 (+1) $150 Tuesday Classic [Bounty Edition] $150 $200,000
Jul 9 Tue 18:00 02:00 (+1) $15 Mini Tuesday Classic [Bounty Edition] $15 $85,000
Jul 10 Wed 01:05 09:05 $10 Speed Racer POWER HOUR [10 BB] $10 $5,000
Jul 10 Wed 01:15 09:15 $25 Speed Racer POWER HOUR [10 BB] $25 $7,000
Jul 10 Wed 01:25 09:25 $50 Speed Racer POWER HOUR [10 BB] $50 $6,000
Jul 10 Wed 01:35 09:35 $100 Speed Racer POWER HOUR [10 BB] $100 $7,000
Jul 10 Wed 01:45 09:45 $200 Speed Racer POWER HOUR [10 BB] $200 $7,000
Jul 10 Wed 13:30 21:30 $10.80 Bounty Hunters 6-Max $11 $35,000
Jul 10 Wed 14:05 22:05 $10 Speed Racer POWER HOUR [10 BB] $10 $12,500
Jul 10 Wed 14:15 22:15 $25 Speed Racer POWER HOUR [10 BB] $25 $12,500
Jul 10 Wed 14:25 22:25 $50 Speed Racer POWER HOUR [10 BB] $50 $12,500
Jul 10 Wed 14:35 22:35 $100 Speed Racer POWER HOUR [10 BB] $100 $10,000
Jul 10 Wed 14:45 22:45 $200 Speed Racer POWER HOUR [10 BB] $200 $12,500
Jul 10 Wed 16:30 00:30 (+1) $525 Bounty Hunters HR [Double Stack] $525 $200,000
Jul 10 Wed 16:30 00:30 (+1) $54 Bounty Hunters Daily Main [Double Stack] $54 $250,000
Jul 10 Wed 18:00 02:00 (+1) $1,050 Wednesday Wonderbox HR [Mystery Bounty] $1,050 $200,000
Jul 10 Wed 18:00 02:00 (+1) $150 Wednesday Wonderbox [Mystery Bounty] $150 $400,000
Jul 10 Wed 18:00 02:00 (+1) $15 Mini Wednesday Wonderbox [Mystery Bounty] $15 $200,000
Jul 11 Thu 01:05 09:05 $10 Speed Racer POWER HOUR [10 BB] $10 $5,000
Jul 11 Thu 01:15 09:15 $25 Speed Racer POWER HOUR [10 BB] $25 $7,000
Jul 11 Thu 01:25 09:25 $50 Speed Racer POWER HOUR [10 BB] $50 $6,000
Jul 11 Thu 01:35 09:35 $100 Speed Racer POWER HOUR [10 BB] $100 $7,000
Jul 11 Thu 01:45 09:45 $200 Speed Racer POWER HOUR [10 BB] $200 $7,000
Jul 11 Thu 13:30 21:30 $10.80 Bounty Hunters 6-Max $11 $35,000
Jul 11 Thu 14:05 22:05 $10 Speed Racer POWER HOUR [10 BB] $10 $12,500
Jul 11 Thu 14:15 22:15 $25 Speed Racer POWER HOUR [10 BB] $25 $12,500
Jul 11 Thu 14:25 22:25 $50 Speed Racer POWER HOUR [10 BB] $50 $12,500
Jul 11 Thu 14:35 22:35 $100 Speed Racer POWER HOUR [10 BB] $100 $10,000
Jul 11 Thu 14:45 22:45 $200 Speed Racer POWER HOUR [10 BB] $200 $12,500
Jul 11 Thu 16:30 00:30 (+1) $525 Bounty Hunters HR [Classic] $525 $300,000
Jul 11 Thu 16:30 00:30 (+1) $54 Bounty Hunters Daily Main [Classic] $54 $250,000
Jul 11 Thu 18:00 02:00 (+1) $1,050 Thursday Throwdown HR $1,050 $300,000
Jul 11 Thu 18:00 02:00 (+1) $150 Thursday Throwdown $150 $200,000
Jul 11 Thu 18:00 02:00 (+1) $15 Mini Thursday Throwdown $15 $85,000
Jul 12 Fri 01:05 09:05 $10 Speed Racer POWER HOUR [10 BB] $10 $5,000
Jul 12 Fri 01:15 09:15 $25 Speed Racer POWER HOUR [10 BB] $25 $7,000
Jul 12 Fri 01:25 09:25 $50 Speed Racer POWER HOUR [10 BB] $50 $6,000
Jul 12 Fri 01:35 09:35 $100 Speed Racer POWER HOUR [10 BB] $100 $7,000
Jul 12 Fri 01:45 09:45 $200 Speed Racer POWER HOUR [10 BB] $200 $7,000
Jul 12 Fri 13:30 21:30 $10.80 Furious Friday 5-Max $11 $30,000
Jul 12 Fri 14:05 22:05 $10 Speed Racer POWER HOUR [10 BB] $10 $12,500
Jul 12 Fri 14:15 22:15 $25 Speed Racer POWER HOUR [10 BB] $25 $12,500
Jul 12 Fri 14:25 22:25 $50 Speed Racer POWER HOUR [10 BB] $50 $12,500
Jul 12 Fri 14:35 22:35 $100 Speed Racer POWER HOUR [10 BB] $100 $10,000
Jul 12 Fri 14:45 22:45 $200 Speed Racer POWER HOUR [10 BB] $200 $12,500
Jul 12 Fri 16:30 00:30 (+1) $525 Bounty Hunters HR [Ultradeep Turbo] $525 $100,000
Jul 12 Fri 16:30 00:30 (+1) $54 Bounty Hunters Daily Main [Ultradeep Turbo] $54 $150,000
Jul 12 Fri 18:00 02:00 (+1) $1,050 Friday Night Fight HR [6-Max] $1,050 $150,000
Jul 12 Fri 18:00 02:00 (+1) $150 Friday Night Fight [6-Max] $150 $125,000
Jul 12 Fri 18:00 02:00 (+1) $15 Mini Friday Night Fight [6-Max] $15 $75,000
Jul 13 Sat 01:05 09:05 $10 Speed Racer POWER HOUR [10 BB] $10 $5,000
Jul 13 Sat 01:15 09:15 $25 Speed Racer POWER HOUR [10 BB] $25 $7,000
Jul 13 Sat 01:25 09:25 $50 Speed Racer POWER HOUR [10 BB] $50 $6,000
Jul 13 Sat 01:35 09:35 $100 Speed Racer POWER HOUR [10 BB] $100 $7,000
Jul 13 Sat 01:45 09:45 $200 Speed Racer POWER HOUR [10 BB] $200 $7,000
Jul 13 Sat 13:30 21:30 $10.80 Saturday Showdown 7-Max $11 $40,000
Jul 13 Sat 14:05 22:05 $10 Speed Racer POWER HOUR [10 BB] $10 $12,500
Jul 13 Sat 14:15 22:15 $25 Speed Racer POWER HOUR [10 BB] $25 $12,500
Jul 13 Sat 14:25 22:25 $50 Speed Racer POWER HOUR [10 BB] $50 $12,500
Jul 13 Sat 14:35 22:35 $100 Speed Racer POWER HOUR [10 BB] $100 $10,000
Jul 13 Sat 14:45 22:45 $200 Speed Racer POWER HOUR [10 BB] $200 $12,500
Jul 13 Sat 16:30 00:30 (+1) $525 Bounty Hunters HR [Big Bounties] $525 $200,000
Jul 13 Sat 16:30 00:30 (+1) $54 Bounty Hunters Daily Main [Big Bounties] $54 $250,000
Jul 13 Sat 18:00 02:00 (+1) $1,050 Saturday Secret KO HR [Mystery Bounty] $1,050 $250,000
Jul 13 Sat 18:00 02:00 (+1) $150 Saturday Secret KO [Mystery Bounty] $150 $500,000
Jul 13 Sat 18:00 02:00 (+1) $15 Mini Saturday Secret KO [Mystery Bounty] $15 $250,000
Jul 14 Sun 01:05 09:05 $10 Speed Racer POWER HOUR [10 BB] $10 $5,000
Jul 14 Sun 01:15 09:15 $25 Speed Racer POWER HOUR [10 BB] $25 $7,000
Jul 14 Sun 01:25 09:25 $50 Speed Racer POWER HOUR [10 BB] $50 $6,000
Jul 14 Sun 01:35 09:35 $100 Speed Racer POWER HOUR [10 BB] $100 $7,000
Jul 14 Sun 01:45 09:45 $200 Speed Racer POWER HOUR [10 BB] $200 $7,000
Jul 14 Sun 12:30 20:30 $215 Sunday Bounty Blast-Off $215 $35,000
Jul 14 Sun 12:30 20:30 $25 Sunday Bounty Blast-Off $25 $100,000
Jul 14 Sun 13:30 21:30 $10.80 Sunday Bounty Seven-Max $11 $50,000
Jul 14 Sun 13:30 21:30 $108 Sunday Bounty Seven-Max $108 $70,000
Jul 14 Sun 14:05 22:05 $10 Speed Racer POWER HOUR [10 BB] $10 $12,500
Jul 14 Sun 14:15 22:15 $25 Speed Racer POWER HOUR [10 BB] $25 $12,500
Jul 14 Sun 14:25 22:25 $50 Speed Racer POWER HOUR [10 BB] $50 $12,500
Jul 14 Sun 14:30 22:30 $840 Sunday Bounty Warm-Up HR $840 $75,000
Jul 14 Sun 14:30 22:30 $88 Sunday Bounty Warm-Up $88 $175,000
Jul 14 Sun 14:35 22:35 $100 Speed Racer POWER HOUR [10 BB] $100 $10,000
Jul 14 Sun 14:45 22:45 $200 Speed Racer POWER HOUR [10 BB] $200 $12,500
Jul 14 Sun 15:30 23:30 $44 Sunday Bounty Forty Stack $44 $200,000
Jul 14 Sun 16:30 00:30 (+1) $525 Bounty Hunters HR Main Event, $1M GTD $525 $1,000,000
Jul 14 Sun 16:30 00:30 (+1) $54 Bounty Hunters Sunday Main Event $54 $500,000
Jul 14 Sun 17:30 01:30 (+1) $215 Sunday Bounty Big Game $215 $350,000
Jul 14 Sun 17:30 01:30 (+1) $21.60 Sunday Bounty Big Game $22 $200,000
Jul 14 Sun 17:40 01:40 (+1) $215 Sunday Omaholic Big Game $215 $50,000
Jul 14 Sun 19:00 03:00 (+1) $1,050 Sunday HR Main Event [Bounty Edition] $1,050 $300,000
Jul 14 Sun 19:30 03:30 (+1) $320 GGMasters Bounty Special Edition $320 $400,000
Jul 14 Sun 19:30 03:30 (+1) $32 Sunday Bounty King $32 $175,000
Jul 14 Sun 19:40 03:40 (+1) $1,050 Sunday Omaholic Bounty HR $1,050 $50,000
Jul 14 Sun 19:40 03:40 (+1) $150 Sunday Omaholic Bounty Main $150 $100,000
Jul 14 Sun 20:00 04:00 (+1) $108 Sunday Showdown [Mystery Bounty] $108 $400,000
Jul 14 Sun 20:00 04:00 (+1) $15 Mini Showdown [Mystery Bounty] $15 $250,000
Jul 14 Sun 21:00 05:00 (+1) $1,050 Sunday HEATER HR [Bounty Turbo] $1,050 $75,000
Jul 14 Sun 21:00 05:00 (+1) $215 Sunday HEATER [Bounty Turbo] $215 $125,000
Jul 14 Sun 21:00 05:00 (+1) $25 Sunday Mini HEATER [Bounty Turbo] $25 $100,000
Jul 14 Sun 22:30 06:30 (+1) $77 LUCKY SEVENS [Bounty Turbo] $77 $125,000
Jul 14 Sun 23:30 07:30 (+1) $215 Sunday Last Call [Bounty Hyper] $215 $60,000
Jul 15 Mon 00:00 08:00 $88 Midnight Madness [Bounty Hyper] $88 $40,000
Jul 15 Mon 01:05 09:05 $10 Speed Racer POWER HOUR [10 BB] $10 $5,000
Jul 15 Mon 01:15 09:15 $25 Speed Racer POWER HOUR [10 BB] $25 $7,000
Jul 15 Mon 01:25 09:25 $50 Speed Racer POWER HOUR [10 BB] $50 $6,000
Jul 15 Mon 01:35 09:35 $100 Speed Racer POWER HOUR [10 BB] $100 $7,000
Jul 15 Mon 01:45 09:45 $200 Speed Racer POWER HOUR [10 BB] $200 $7,000
Jul 15 Mon 12:30 20:30 $25 Bounty Blast-Off $25 $50,000
Jul 15 Mon 13:30 21:30 $10.80 Monday Hangover [Variable Levels] $11 $30,000
Jul 15 Mon 14:05 22:05 $10 Speed Racer POWER HOUR [10 BB] $10 $12,500
Jul 15 Mon 14:15 22:15 $25 Speed Racer POWER HOUR [10 BB] $25 $12,500
Jul 15 Mon 14:25 22:25 $50 Speed Racer POWER HOUR [10 BB] $50 $12,500
Jul 15 Mon 14:30 22:30 $88 Bounty Warm-Up $88 $60,000
Jul 15 Mon 14:35 22:35 $100 Speed Racer POWER HOUR [10 BB] $100 $10,000
Jul 15 Mon 14:45 22:45 $200 Speed Racer POWER HOUR [10 BB] $200 $12,500
Jul 15 Mon 15:30 23:30 $44 Bounty Forty Stack $44 $80,000
Jul 15 Mon 16:30 00:30 (+1) $525 Bounty Hunters HR [6-Max] $525 $300,000
Jul 15 Mon 16:30 00:30 (+1) $54 Bounty Hunters Daily Main [6-Max] $54 $250,000
Jul 15 Mon 17:30 01:30 (+1) $215 Bounty Big Game $215 $150,000
Jul 15 Mon 17:30 01:30 (+1) $25 Bounty Big Game $25 $100,000
Jul 15 Mon 18:00 02:00 (+1) $1,050 Monday Monster Stack HR [Bounty Edition] $1,050 $200,000
Jul 15 Mon 18:00 02:00 (+1) $150 Monday Monster Stack [Bounty Edition] $150 $150,000
Jul 15 Mon 18:00 02:00 (+1) $15 Mini Monday Monster Stack [Bounty Edition] $15 $75,000
Jul 15 Mon 19:30 03:30 (+1) $32 Bounty King $32 $70,000
Jul 15 Mon 19:40 03:40 (+1) $525 Omaholic Bounty Fifty Stack $525 $12,500
Jul 15 Mon 19:40 03:40 (+1) $54 Omaholic Bounty Fifty Stack $54 $15,000
Jul 15 Mon 21:00 05:00 (+1) $215 Daily HEATER [Bounty Turbo] $215 $50,000
Jul 15 Mon 22:00 06:00 (+1) $66 SUPER SIX [Bounty Turbo] $66 $40,000
Jul 15 Mon 22:30 06:30 (+1) $25 HYPER 5-MAX $25 $25,000
Jul 16 Tue 00:00 08:00 $88 Midnight Madness [Bounty Hyper] $88 $40,000
Jul 16 Tue 01:05 09:05 $10 Speed Racer POWER HOUR [10 BB] $10 $5,000
Jul 16 Tue 01:15 09:15 $25 Speed Racer POWER HOUR [10 BB] $25 $7,000
Jul 16 Tue 01:25 09:25 $50 Speed Racer POWER HOUR [10 BB] $50 $6,000
Jul 16 Tue 01:35 09:35 $100 Speed Racer POWER HOUR [10 BB] $100 $7,000
Jul 16 Tue 01:45 09:45 $200 Speed Racer POWER HOUR [10 BB] $200 $7,000
Jul 16 Tue 13:30 21:30 $10.80 Bounty Hunters 6-Max $11 $35,000
Jul 16 Tue 14:05 22:05 $10 Speed Racer POWER HOUR [10 BB] $10 $12,500
Jul 16 Tue 14:15 22:15 $25 Speed Racer POWER HOUR [10 BB] $25 $12,500
Jul 16 Tue 14:25 22:25 $50 Speed Racer POWER HOUR [10 BB] $50 $12,500
Jul 16 Tue 14:35 22:35 $100 Speed Racer POWER HOUR [10 BB] $100 $10,000
Jul 16 Tue 14:45 22:45 $200 Speed Racer POWER HOUR [10 BB] $200 $12,500
Jul 16 Tue 16:30 00:30 (+1) $525 Bounty Hunters HR [Deepstack] $525 $200,000
Jul 16 Tue 16:30 00:30 (+1) $54 Bounty Hunters Daily Main [Deepstack] $54 $250,000
Jul 16 Tue 18:00 02:00 (+1) $1,050 Tuesday Classic HR [Bounty Edition] $1,050 $150,000
Jul 16 Tue 18:00 02:00 (+1) $150 Tuesday Classic [Bounty Edition] $150 $200,000
Jul 16 Tue 18:00 02:00 (+1) $15 Mini Tuesday Classic [Bounty Edition] $15 $85,000
Jul 17 Wed 01:05 09:05 $10 Speed Racer POWER HOUR [10 BB] $10 $5,000
Jul 17 Wed 01:15 09:15 $25 Speed Racer POWER HOUR [10 BB] $25 $7,000
Jul 17 Wed 01:25 09:25 $50 Speed Racer POWER HOUR [10 BB] $50 $6,000
Jul 17 Wed 01:35 09:35 $100 Speed Racer POWER HOUR [10 BB] $100 $7,000
Jul 17 Wed 01:45 09:45 $200 Speed Racer POWER HOUR [10 BB] $200 $7,000
Jul 17 Wed 13:30 21:30 $10.80 Bounty Hunters 6-Max $11 $35,000
Jul 17 Wed 14:05 22:05 $10 Speed Racer POWER HOUR [10 BB] $10 $12,500
Jul 17 Wed 14:15 22:15 $25 Speed Racer POWER HOUR [10 BB] $25 $12,500
Jul 17 Wed 14:25 22:25 $50 Speed Racer POWER HOUR [10 BB] $50 $12,500
Jul 17 Wed 14:35 22:35 $100 Speed Racer POWER HOUR [10 BB] $100 $10,000
Jul 17 Wed 14:45 22:45 $200 Speed Racer POWER HOUR [10 BB] $200 $12,500
Jul 17 Wed 16:30 00:30 (+1) $525 Bounty Hunters HR [Double Stack] $525 $200,000
Jul 17 Wed 16:30 00:30 (+1) $54 Bounty Hunters Daily Main [Double Stack] $54 $250,000
Jul 17 Wed 18:00 02:00 (+1) $1,050 Wednesday Wonderbox HR [Mystery Bounty] $1,050 $200,000
Jul 17 Wed 18:00 02:00 (+1) $150 Wednesday Wonderbox [Mystery Bounty] $150 $400,000
Jul 17 Wed 18:00 02:00 (+1) $15 Mini Wednesday Wonderbox [Mystery Bounty] $15 $200,000
Jul 18 Thu 01:05 09:05 $10 Speed Racer POWER HOUR [10 BB] $10 $5,000
Jul 18 Thu 01:15 09:15 $25 Speed Racer POWER HOUR [10 BB] $25 $7,000
Jul 18 Thu 01:25 09:25 $50 Speed Racer POWER HOUR [10 BB] $50 $6,000
Jul 18 Thu 01:35 09:35 $100 Speed Racer POWER HOUR [10 BB] $100 $7,000
Jul 18 Thu 01:45 09:45 $200 Speed Racer POWER HOUR [10 BB] $200 $7,000
Jul 18 Thu 13:30 21:30 $10.80 Bounty Hunters 6-Max $11 $35,000
Jul 18 Thu 14:05 22:05 $10 Speed Racer POWER HOUR [10 BB] $10 $12,500
Jul 18 Thu 14:15 22:15 $25 Speed Racer POWER HOUR [10 BB] $25 $12,500
Jul 18 Thu 14:25 22:25 $50 Speed Racer POWER HOUR [10 BB] $50 $12,500
Jul 18 Thu 14:35 22:35 $100 Speed Racer POWER HOUR [10 BB] $100 $10,000
Jul 18 Thu 14:45 22:45 $200 Speed Racer POWER HOUR [10 BB] $200 $12,500
Jul 18 Thu 16:30 00:30 (+1) $525 Bounty Hunters HR [Classic] $525 $300,000
Jul 18 Thu 16:30 00:30 (+1) $54 Bounty Hunters Daily Main [Classic] $54 $250,000
Jul 18 Thu 18:00 02:00 (+1) $1,050 Thursday Throwdown HR $1,050 $300,000
Jul 18 Thu 18:00 02:00 (+1) $150 Thursday Throwdown $150 $200,000
Jul 18 Thu 18:00 02:00 (+1) $15 Mini Thursday Throwdown $15 $85,000
Jul 19 Fri 01:05 09:05 $10 Speed Racer POWER HOUR [10 BB] $10 $5,000
Jul 19 Fri 01:15 09:15 $25 Speed Racer POWER HOUR [10 BB] $25 $7,000
Jul 19 Fri 01:25 09:25 $50 Speed Racer POWER HOUR [10 BB] $50 $6,000
Jul 19 Fri 01:35 09:35 $100 Speed Racer POWER HOUR [10 BB] $100 $7,000
Jul 19 Fri 01:45 09:45 $200 Speed Racer POWER HOUR [10 BB] $200 $7,000
Jul 19 Fri 13:30 21:30 $10.80 Furious Friday 5-Max $11 $30,000
Jul 19 Fri 14:05 22:05 $10 Speed Racer POWER HOUR [10 BB] $10 $12,500
Jul 19 Fri 14:15 22:15 $25 Speed Racer POWER HOUR [10 BB] $25 $12,500
Jul 19 Fri 14:25 22:25 $50 Speed Racer POWER HOUR [10 BB] $50 $12,500
Jul 19 Fri 14:35 22:35 $100 Speed Racer POWER HOUR [10 BB] $100 $10,000
Jul 19 Fri 14:45 22:45 $200 Speed Racer POWER HOUR [10 BB] $200 $12,500
Jul 19 Fri 16:30 00:30 (+1) $525 Bounty Hunters HR [Ultradeep Turbo] $525 $100,000
Jul 19 Fri 16:30 00:30 (+1) $54 Bounty Hunters Daily Main [Ultradeep Turbo] $54 $150,000
Jul 19 Fri 18:00 02:00 (+1) $1,050 Friday Night Fight HR [6-Max] $1,050 $150,000
Jul 19 Fri 18:00 02:00 (+1) $150 Friday Night Fight [6-Max] $150 $125,000
Jul 19 Fri 18:00 02:00 (+1) $15 Mini Friday Night Fight [6-Max] $15 $75,000
Jul 20 Sat 01:05 09:05 $10 Speed Racer POWER HOUR [10 BB] $10 $5,000
Jul 20 Sat 01:15 09:15 $25 Speed Racer POWER HOUR [10 BB] $25 $7,000
Jul 20 Sat 01:25 09:25 $50 Speed Racer POWER HOUR [10 BB] $50 $6,000
Jul 20 Sat 01:35 09:35 $100 Speed Racer POWER HOUR [10 BB] $100 $7,000
Jul 20 Sat 01:45 09:45 $200 Speed Racer POWER HOUR [10 BB] $200 $7,000
Jul 20 Sat 13:30 21:30 $10.80 Saturday Showdown 7-Max $11 $40,000
Jul 20 Sat 14:05 22:05 $10 Speed Racer POWER HOUR [10 BB] $10 $12,500
Jul 20 Sat 14:15 22:15 $25 Speed Racer POWER HOUR [10 BB] $25 $12,500
Jul 20 Sat 14:25 22:25 $50 Speed Racer POWER HOUR [10 BB] $50 $12,500
Jul 20 Sat 14:35 22:35 $100 Speed Racer POWER HOUR [10 BB] $100 $10,000
Jul 20 Sat 14:45 22:45 $200 Speed Racer POWER HOUR [10 BB] $200 $12,500
Jul 20 Sat 16:30 00:30 (+1) $525 Bounty Hunters HR [Big Bounties] $525 $200,000
Jul 20 Sat 16:30 00:30 (+1) $54 Bounty Hunters Daily Main [Big Bounties] $54 $250,000
Jul 20 Sat 18:00 02:00 (+1) $1,050 Saturday Secret KO HR [Mystery Bounty] $1,050 $250,000
Jul 20 Sat 18:00 02:00 (+1) $150 Saturday Secret KO [Mystery Bounty] $150 $500,000
Jul 20 Sat 18:00 02:00 (+1) $15 Mini Saturday Secret KO [Mystery Bounty] $15 $250,000
Jul 21 Sun 01:05 09:05 $10 Speed Racer POWER HOUR [10 BB] $10 $5,000
Jul 21 Sun 01:15 09:15 $25 Speed Racer POWER HOUR [10 BB] $25 $7,000
Jul 21 Sun 01:25 09:25 $50 Speed Racer POWER HOUR [10 BB] $50 $6,000
Jul 21 Sun 01:35 09:35 $100 Speed Racer POWER HOUR [10 BB] $100 $7,000
Jul 21 Sun 01:45 09:45 $200 Speed Racer POWER HOUR [10 BB] $200 $7,000
Jul 21 Sun 12:30 20:30 $215 Sunday Bounty Blast-Off $215 $35,000
Jul 21 Sun 12:30 20:30 $25 Sunday Bounty Blast-Off $25 $100,000
Jul 21 Sun 13:30 21:30 $10.80 Sunday Bounty Seven-Max $11 $50,000
Jul 21 Sun 13:30 21:30 $108 Sunday Bounty Seven-Max $108 $70,000
Jul 21 Sun 14:05 22:05 $10 Speed Racer POWER HOUR [10 BB] $10 $12,500
Jul 21 Sun 14:15 22:15 $25 Speed Racer POWER HOUR [10 BB] $25 $12,500
Jul 21 Sun 14:25 22:25 $50 Speed Racer POWER HOUR [10 BB] $50 $12,500
Jul 21 Sun 14:30 22:30 $840 Sunday Bounty Warm-Up HR $840 $75,000
Jul 21 Sun 14:30 22:30 $88 Sunday Bounty Warm-Up $88 $175,000
Jul 21 Sun 14:35 22:35 $100 Speed Racer POWER HOUR [10 BB] $100 $10,000
Jul 21 Sun 14:45 22:45 $200 Speed Racer POWER HOUR [10 BB] $200 $12,500
Jul 21 Sun 15:30 23:30 $44 Sunday Bounty Forty Stack $44 $200,000
Jul 21 Sun 16:30 00:30 (+1) $525 Bounty Hunters HR Main Event, $1M GTD $525 $1,000,000
Jul 21 Sun 16:30 00:30 (+1) $54 Bounty Hunters Sunday Main Event $54 $500,000
Jul 21 Sun 17:30 01:30 (+1) $215 Sunday Bounty Big Game $215 $350,000
Jul 21 Sun 17:30 01:30 (+1) $21.60 Sunday Bounty Big Game $22 $200,000
Jul 21 Sun 17:40 01:40 (+1) $215 Sunday Omaholic Big Game $215 $50,000
Jul 21 Sun 19:00 03:00 (+1) $1,050 Sunday HR Main Event [Bounty Edition] $1,050 $300,000
Jul 21 Sun 19:30 03:30 (+1) $320 GGMasters Bounty Special Edition $320 $400,000
Jul 21 Sun 19:30 03:30 (+1) $32 Sunday Bounty King $32 $175,000
Jul 21 Sun 19:40 03:40 (+1) $1,050 Sunday Omaholic Bounty HR $1,050 $50,000
Jul 21 Sun 19:40 03:40 (+1) $150 Sunday Omaholic Bounty Main $150 $100,000
Jul 21 Sun 20:00 04:00 (+1) $108 Sunday Showdown [Mystery Bounty] $108 $400,000
Jul 21 Sun 20:00 04:00 (+1) $15 Mini Showdown [Mystery Bounty] $15 $250,000
Jul 21 Sun 20:30 04:30 (+1) Global MILLION$ Bounty Edition, $1M GTD [Final Stage] $50 $1,000,000
Jul 21 Sun 21:00 05:00 (+1) $1,050 Sunday HEATER HR [Bounty Turbo] $1,050 $75,000
Jul 21 Sun 21:00 05:00 (+1) $215 Sunday HEATER [Bounty Turbo] $215 $125,000
Jul 21 Sun 21:00 05:00 (+1) $25 Sunday Mini HEATER [Bounty Turbo] $25 $100,000
Jul 21 Sun 22:30 06:30 (+1) $77 LUCKY SEVENS [Bounty Turbo] $77 $125,000
Jul 21 Sun 23:30 07:30 (+1) $215 Sunday Last Call [Bounty Hyper] $215 $60,000
Jul 22 Mon 00:00 08:00 $88 Midnight Madness [Bounty Hyper] $88 $40,000
Jul 22 Mon 01:05 09:05 $10 Speed Racer POWER HOUR [10 BB] $10 $5,000
Jul 22 Mon 01:15 09:15 $25 Speed Racer POWER HOUR [10 BB] $25 $7,000
Jul 22 Mon 01:25 09:25 $50 Speed Racer POWER HOUR [10 BB] $50 $6,000
Jul 22 Mon 01:35 09:35 $100 Speed Racer POWER HOUR [10 BB] $100 $7,000
Jul 22 Mon 01:45 09:45 $200 Speed Racer POWER HOUR [10 BB] $200 $7,000
Jul 22 Mon 12:30 20:30 $25 Bounty Blast-Off $25 $50,000
Jul 22 Mon 13:30 21:30 $10.80 Monday Hangover [Variable Levels] $11 $30,000
Jul 22 Mon 14:05 22:05 $10 Speed Racer POWER HOUR [10 BB] $10 $12,500
Jul 22 Mon 14:15 22:15 $25 Speed Racer POWER HOUR [10 BB] $25 $12,500
Jul 22 Mon 14:25 22:25 $50 Speed Racer POWER HOUR [10 BB] $50 $12,500
Jul 22 Mon 14:30 22:30 $88 Bounty Warm-Up $88 $60,000
Jul 22 Mon 14:35 22:35 $100 Speed Racer POWER HOUR [10 BB] $100 $10,000
Jul 22 Mon 14:45 22:45 $200 Speed Racer POWER HOUR [10 BB] $200 $12,500
Jul 22 Mon 15:30 23:30 $44 Bounty Forty Stack $44 $80,000
Jul 22 Mon 16:30 00:30 (+1) $525 Bounty Hunters HR [6-Max] $525 $300,000
Jul 22 Mon 16:30 00:30 (+1) $54 Bounty Hunters Daily Main [6-Max] $54 $250,000
Jul 22 Mon 17:30 01:30 (+1) $215 Bounty Big Game $215 $150,000
Jul 22 Mon 17:30 01:30 (+1) $25 Bounty Big Game $25 $100,000
Jul 22 Mon 18:00 02:00 (+1) $1,050 Monday Monster Stack HR [Bounty Edition] $1,050 $200,000
Jul 22 Mon 18:00 02:00 (+1) $150 Monday Monster Stack [Bounty Edition] $150 $150,000
Jul 22 Mon 18:00 02:00 (+1) $15 Mini Monday Monster Stack [Bounty Edition] $15 $75,000
Jul 22 Mon 19:30 03:30 (+1) $32 Bounty King $32 $70,000
Jul 22 Mon 19:40 03:40 (+1) $525 Omaholic Bounty Fifty Stack $525 $12,500
Jul 22 Mon 19:40 03:40 (+1) $54 Omaholic Bounty Fifty Stack $54 $15,000
Jul 22 Mon 21:00 05:00 (+1) $215 Daily HEATER [Bounty Turbo] $215 $50,000
Jul 22 Mon 22:00 06:00 (+1) $66 SUPER SIX [Bounty Turbo] $66 $40,000
Jul 22 Mon 22:30 06:30 (+1) $25 HYPER 5-MAX $25 $25,000
Jul 23 Tue 00:00 08:00 $88 Midnight Madness [Bounty Hyper] $88 $40,000
Jul 23 Tue 01:05 09:05 $10 Speed Racer POWER HOUR [10 BB] $10 $5,000
Jul 23 Tue 01:15 09:15 $25 Speed Racer POWER HOUR [10 BB] $25 $7,000
Jul 23 Tue 01:25 09:25 $50 Speed Racer POWER HOUR [10 BB] $50 $6,000
Jul 23 Tue 01:35 09:35 $100 Speed Racer POWER HOUR [10 BB] $100 $7,000
Jul 23 Tue 01:45 09:45 $200 Speed Racer POWER HOUR [10 BB] $200 $7,000
Jul 23 Tue 13:30 21:30 $10.80 Bounty Hunters 6-Max $11 $35,000
Jul 23 Tue 14:05 22:05 $10 Speed Racer POWER HOUR [10 BB] $10 $12,500
Jul 23 Tue 14:15 22:15 $25 Speed Racer POWER HOUR [10 BB] $25 $12,500
Jul 23 Tue 14:25 22:25 $50 Speed Racer POWER HOUR [10 BB] $50 $12,500
Jul 23 Tue 14:35 22:35 $100 Speed Racer POWER HOUR [10 BB] $100 $10,000
Jul 23 Tue 14:45 22:45 $200 Speed Racer POWER HOUR [10 BB] $200 $12,500
Jul 23 Tue 16:30 00:30 (+1) $525 Bounty Hunters HR [Deepstack] $525 $200,000
Jul 23 Tue 16:30 00:30 (+1) $54 Bounty Hunters Daily Main [Deepstack] $54 $250,000
Jul 23 Tue 18:00 02:00 (+1) $1,050 Tuesday Classic HR [Bounty Edition] $1,050 $150,000
Jul 23 Tue 18:00 02:00 (+1) $150 Tuesday Classic [Bounty Edition] $150 $200,000
Jul 23 Tue 18:00 02:00 (+1) $15 Mini Tuesday Classic [Bounty Edition] $15 $85,000
Jul 24 Wed 01:05 09:05 $10 Speed Racer POWER HOUR [10 BB] $10 $5,000
Jul 24 Wed 01:15 09:15 $25 Speed Racer POWER HOUR [10 BB] $25 $7,000
Jul 24 Wed 01:25 09:25 $50 Speed Racer POWER HOUR [10 BB] $50 $6,000
Jul 24 Wed 01:35 09:35 $100 Speed Racer POWER HOUR [10 BB] $100 $7,000
Jul 24 Wed 01:45 09:45 $200 Speed Racer POWER HOUR [10 BB] $200 $7,000
Jul 24 Wed 13:30 21:30 $10.80 Bounty Hunters 6-Max $11 $35,000
Jul 24 Wed 14:05 22:05 $10 Speed Racer POWER HOUR [10 BB] $10 $12,500
Jul 24 Wed 14:15 22:15 $25 Speed Racer POWER HOUR [10 BB] $25 $12,500
Jul 24 Wed 14:25 22:25 $50 Speed Racer POWER HOUR [10 BB] $50 $12,500
Jul 24 Wed 14:35 22:35 $100 Speed Racer POWER HOUR [10 BB] $100 $10,000
Jul 24 Wed 14:45 22:45 $200 Speed Racer POWER HOUR [10 BB] $200 $12,500
Jul 24 Wed 16:30 00:30 (+1) $525 Bounty Hunters HR [Double Stack] $525 $200,000
Jul 24 Wed 16:30 00:30 (+1) $54 Bounty Hunters Daily Main [Double Stack] $54 $250,000
Jul 24 Wed 18:00 02:00 (+1) $1,050 Wednesday Wonderbox HR [Mystery Bounty] $1,050 $200,000
Jul 24 Wed 18:00 02:00 (+1) $150 Wednesday Wonderbox [Mystery Bounty] $150 $400,000
Jul 24 Wed 18:00 02:00 (+1) $15 Mini Wednesday Wonderbox [Mystery Bounty] $15 $200,000
Jul 25 Thu 01:05 09:05 $10 Speed Racer POWER HOUR [10 BB] $10 $5,000
Jul 25 Thu 01:15 09:15 $25 Speed Racer POWER HOUR [10 BB] $25 $7,000
Jul 25 Thu 01:25 09:25 $50 Speed Racer POWER HOUR [10 BB] $50 $6,000
Jul 25 Thu 01:35 09:35 $100 Speed Racer POWER HOUR [10 BB] $100 $7,000
Jul 25 Thu 01:45 09:45 $200 Speed Racer POWER HOUR [10 BB] $200 $7,000
Jul 25 Thu 13:30 21:30 $10.80 Bounty Hunters 6-Max $11 $35,000
Jul 25 Thu 14:05 22:05 $10 Speed Racer POWER HOUR [10 BB] $10 $12,500
Jul 25 Thu 14:15 22:15 $25 Speed Racer POWER HOUR [10 BB] $25 $12,500
Jul 25 Thu 14:25 22:25 $50 Speed Racer POWER HOUR [10 BB] $50 $12,500
Jul 25 Thu 14:35 22:35 $100 Speed Racer POWER HOUR [10 BB] $100 $10,000
Jul 25 Thu 14:45 22:45 $200 Speed Racer POWER HOUR [10 BB] $200 $12,500
Jul 25 Thu 16:30 00:30 (+1) $525 Bounty Hunters HR [Classic] $525 $300,000
Jul 25 Thu 16:30 00:30 (+1) $54 Bounty Hunters Daily Main [Classic] $54 $250,000
Jul 25 Thu 18:00 02:00 (+1) $1,050 Thursday Throwdown HR $1,050 $300,000
Jul 25 Thu 18:00 02:00 (+1) $150 Thursday Throwdown $150 $200,000
Jul 25 Thu 18:00 02:00 (+1) $15 Mini Thursday Throwdown $15 $85,000
Jul 26 Fri 01:05 09:05 $10 Speed Racer POWER HOUR [10 BB] $10 $5,000
Jul 26 Fri 01:15 09:15 $25 Speed Racer POWER HOUR [10 BB] $25 $7,000
Jul 26 Fri 01:25 09:25 $50 Speed Racer POWER HOUR [10 BB] $50 $6,000
Jul 26 Fri 01:35 09:35 $100 Speed Racer POWER HOUR [10 BB] $100 $7,000
Jul 26 Fri 01:45 09:45 $200 Speed Racer POWER HOUR [10 BB] $200 $7,000
Jul 26 Fri 13:30 21:30 $10.80 Furious Friday 5-Max $11 $30,000
Jul 26 Fri 14:05 22:05 $10 Speed Racer POWER HOUR [10 BB] $10 $12,500
Jul 26 Fri 14:15 22:15 $25 Speed Racer POWER HOUR [10 BB] $25 $12,500
Jul 26 Fri 14:25 22:25 $50 Speed Racer POWER HOUR [10 BB] $50 $12,500
Jul 26 Fri 14:35 22:35 $100 Speed Racer POWER HOUR [10 BB] $100 $10,000
Jul 26 Fri 14:45 22:45 $200 Speed Racer POWER HOUR [10 BB] $200 $12,500
Jul 26 Fri 16:30 00:30 (+1) $525 Bounty Hunters HR [Ultradeep Turbo] $525 $100,000
Jul 26 Fri 16:30 00:30 (+1) $54 Bounty Hunters Daily Main [Ultradeep Turbo] $54 $150,000
Jul 26 Fri 18:00 02:00 (+1) $1,050 Friday Night Fight HR [6-Max] $1,050 $150,000
Jul 26 Fri 18:00 02:00 (+1) $150 Friday Night Fight [6-Max] $150 $125,000
Jul 26 Fri 18:00 02:00 (+1) $15 Mini Friday Night Fight [6-Max] $15 $75,000
Jul 27 Sat 01:05 09:05 $10 Speed Racer POWER HOUR [10 BB] $10 $5,000
Jul 27 Sat 01:15 09:15 $25 Speed Racer POWER HOUR [10 BB] $25 $7,000
Jul 27 Sat 01:25 09:25 $50 Speed Racer POWER HOUR [10 BB] $50 $6,000
Jul 27 Sat 01:35 09:35 $100 Speed Racer POWER HOUR [10 BB] $100 $7,000
Jul 27 Sat 01:45 09:45 $200 Speed Racer POWER HOUR [10 BB] $200 $7,000
Jul 27 Sat 13:30 21:30 $10.80 Saturday Showdown 7-Max $11 $40,000
Jul 27 Sat 14:05 22:05 $10 Speed Racer POWER HOUR [10 BB] $10 $12,500
Jul 27 Sat 14:15 22:15 $25 Speed Racer POWER HOUR [10 BB] $25 $12,500
Jul 27 Sat 14:25 22:25 $50 Speed Racer POWER HOUR [10 BB] $50 $12,500
Jul 27 Sat 14:35 22:35 $100 Speed Racer POWER HOUR [10 BB] $100 $10,000
Jul 27 Sat 14:45 22:45 $200 Speed Racer POWER HOUR [10 BB] $200 $12,500
Jul 27 Sat 16:30 00:30 (+1) $525 Bounty Hunters HR [Big Bounties] $525 $200,000
Jul 27 Sat 16:30 00:30 (+1) $54 Bounty Hunters Daily Main [Big Bounties] $54 $250,000
Jul 27 Sat 18:00 02:00 (+1) $1,050 Saturday Secret KO HR [Mystery Bounty] $1,050 $250,000
Jul 27 Sat 18:00 02:00 (+1) $150 Saturday Secret KO [Mystery Bounty] $150 $500,000
Jul 27 Sat 18:00 02:00 (+1) $15 Mini Saturday Secret KO [Mystery Bounty] $15 $250,000
Jul 28 Sun 01:05 09:05 $10 Speed Racer POWER HOUR [10 BB] $10 $5,000
Jul 28 Sun 01:15 09:15 $25 Speed Racer POWER HOUR [10 BB] $25 $7,000
Jul 28 Sun 01:25 09:25 $50 Speed Racer POWER HOUR [10 BB] $50 $6,000
Jul 28 Sun 01:35 09:35 $100 Speed Racer POWER HOUR [10 BB] $100 $7,000
Jul 28 Sun 01:45 09:45 $200 Speed Racer POWER HOUR [10 BB] $200 $7,000
Jul 28 Sun 12:30 20:30 $215 Sunday Bounty Blast-Off $215 $35,000
Jul 28 Sun 12:30 20:30 $25 Sunday Bounty Blast-Off $25 $100,000
Jul 28 Sun 13:30 21:30 $10.80 Sunday Bounty Seven-Max $11 $50,000
Jul 28 Sun 13:30 21:30 $108 Sunday Bounty Seven-Max $108 $70,000
Jul 28 Sun 14:05 22:05 $10 Speed Racer POWER HOUR [10 BB] $10 $12,500
Jul 28 Sun 14:15 22:15 $25 Speed Racer POWER HOUR [10 BB] $25 $12,500
Jul 28 Sun 14:25 22:25 $50 Speed Racer POWER HOUR [10 BB] $50 $12,500
Jul 28 Sun 14:30 22:30 $840 Sunday Bounty Warm-Up HR $840 $75,000
Jul 28 Sun 14:30 22:30 $88 Sunday Bounty Warm-Up $88 $175,000
Jul 28 Sun 14:35 22:35 $100 Speed Racer POWER HOUR [10 BB] $100 $10,000
Jul 28 Sun 14:45 22:45 $200 Speed Racer POWER HOUR [10 BB] $200 $12,500
Jul 28 Sun 15:30 23:30 $44 Sunday Bounty Forty Stack $44 $200,000
Jul 28 Sun 16:30 00:30 (+1) $525 Bounty Hunters HR Main Event, $1M GTD $525 $1,000,000
Jul 28 Sun 16:30 00:30 (+1) $54 Bounty Hunters Sunday Main Event $54 $500,000
Jul 28 Sun 17:30 01:30 (+1) $215 Sunday Bounty Big Game $215 $350,000
Jul 28 Sun 17:30 01:30 (+1) $21.60 Sunday Bounty Big Game $22 $200,000
Jul 28 Sun 17:40 01:40 (+1) $215 Sunday Omaholic Big Game $215 $50,000
Jul 28 Sun 19:00 03:00 (+1) $1,050 Sunday HR Main Event [Bounty Edition] $1,050 $300,000
Jul 28 Sun 19:30 03:30 (+1) $320 GGMasters Bounty Special Edition $320 $400,000
Jul 28 Sun 19:30 03:30 (+1) $32 Sunday Bounty King $32 $175,000
Jul 28 Sun 19:40 03:40 (+1) $1,050 Sunday Omaholic Bounty HR $1,050 $50,000
Jul 28 Sun 19:40 03:40 (+1) $150 Sunday Omaholic Bounty Main $150 $100,000
Jul 28 Sun 20:00 04:00 (+1) $108 Sunday Showdown [Mystery Bounty] $108 $400,000
Jul 28 Sun 20:00 04:00 (+1) $15 Mini Showdown [Mystery Bounty] $15 $250,000
Jul 28 Sun 21:00 05:00 (+1) $1,050 Sunday HEATER HR [Bounty Turbo] $1,050 $75,000
Jul 28 Sun 21:00 05:00 (+1) $215 Sunday HEATER [Bounty Turbo] $215 $125,000
Jul 28 Sun 21:00 05:00 (+1) $25 Sunday Mini HEATER [Bounty Turbo] $25 $100,000
Jul 28 Sun 22:30 06:30 (+1) $77 LUCKY SEVENS [Bounty Turbo] $77 $125,000
Jul 28 Sun 23:30 07:30 (+1) $215 Sunday Last Call [Bounty Hyper] $215 $60,000
Jul 29 Mon 00:00 08:00 $88 Midnight Madness [Bounty Hyper] $88 $40,000
Jul 29 Mon 01:05 09:05 $10 Speed Racer POWER HOUR [10 BB] $10 $5,000
Jul 29 Mon 01:15 09:15 $25 Speed Racer POWER HOUR [10 BB] $25 $7,000
Jul 29 Mon 01:25 09:25 $50 Speed Racer POWER HOUR [10 BB] $50 $6,000
Jul 29 Mon 01:35 09:35 $100 Speed Racer POWER HOUR [10 BB] $100 $7,000
Jul 29 Mon 01:45 09:45 $200 Speed Racer POWER HOUR [10 BB] $200 $7,000
Jul 29 Mon 12:30 20:30 $25 Bounty Blast-Off $25 $50,000
Jul 29 Mon 13:30 21:30 $10.80 Monday Hangover [Variable Levels] $11 $30,000
Jul 29 Mon 14:05 22:05 $10 Speed Racer POWER HOUR [10 BB] $10 $12,500
Jul 29 Mon 14:15 22:15 $25 Speed Racer POWER HOUR [10 BB] $25 $12,500
Jul 29 Mon 14:25 22:25 $50 Speed Racer POWER HOUR [10 BB] $50 $12,500
Jul 29 Mon 14:30 22:30 $88 Bounty Warm-Up $88 $60,000
Jul 29 Mon 14:35 22:35 $100 Speed Racer POWER HOUR [10 BB] $100 $10,000
Jul 29 Mon 14:45 22:45 $200 Speed Racer POWER HOUR [10 BB] $200 $12,500
Jul 29 Mon 15:30 23:30 $44 Bounty Forty Stack $44 $80,000
Jul 29 Mon 16:30 00:30 (+1) $525 Bounty Hunters HR [6-Max] $525 $300,000
Jul 29 Mon 16:30 00:30 (+1) $54 Bounty Hunters Daily Main [6-Max] $54 $250,000
Jul 29 Mon 17:30 01:30 (+1) $215 Bounty Big Game $215 $150,000
Jul 29 Mon 17:30 01:30 (+1) $25 Bounty Big Game $25 $100,000
Jul 29 Mon 18:00 02:00 (+1) $1,050 Monday Monster Stack HR [Bounty Edition] $1,050 $200,000
Jul 29 Mon 18:00 02:00 (+1) $150 Monday Monster Stack [Bounty Edition] $150 $150,000
Jul 29 Mon 18:00 02:00 (+1) $15 Mini Monday Monster Stack [Bounty Edition] $15 $75,000
Jul 29 Mon 18:30 02:30 (+1) Mystery MILLION$ Main Event, $4M GTD [Day 2] $108 $4,000,000
Jul 29 Mon 19:30 03:30 (+1) $32 Bounty King $32 $70,000
Jul 29 Mon 19:40 03:40 (+1) $525 Omaholic Bounty Fifty Stack $525 $12,500
Jul 29 Mon 19:40 03:40 (+1) $54 Omaholic Bounty Fifty Stack $54 $15,000
Jul 29 Mon 21:00 05:00 (+1) $215 Daily HEATER [Bounty Turbo] $215 $50,000
Jul 29 Mon 22:00 06:00 (+1) $66 SUPER SIX [Bounty Turbo] $66 $40,000
Jul 29 Mon 22:30 06:30 (+1) $25 HYPER 5-MAX $25 $25,000
Jul 30 Tue 00:00 08:00 $88 Midnight Madness [Bounty Hyper] $88 $40,000
Jul 30 Tue 01:05 09:05 $10 Speed Racer POWER HOUR [10 BB] $10 $5,000
Jul 30 Tue 01:15 09:15 $25 Speed Racer POWER HOUR [10 BB] $25 $7,000
Jul 30 Tue 01:25 09:25 $50 Speed Racer POWER HOUR [10 BB] $50 $6,000
Jul 30 Tue 01:35 09:35 $100 Speed Racer POWER HOUR [10 BB] $100 $7,000
Jul 30 Tue 01:45 09:45 $200 Speed Racer POWER HOUR [10 BB] $200 $7,000

Frequently Asked Questions (FAQs)

If you need more assistance, feel free to contact our friendly support staff who are ready to assist you 24/7.

When will the bounty rewards be credited to my account?

Bounty rewards will be credited to your player account the moment you KO an opponent. It can be found in your transaction history as individual transactions.

When does the bounty end?

Bounties will remain in play right up until the final Heads Up, where the winner will claim the loser’s bounty as the tournament ends.

What is the Mystery Bounty tournament?

In Mystery Bounty, bounties are only paid in the final phase AND they are random. This means that you could win the biggest bounty even if you get knocked out early in the final phase!

What if there’s a tie in points?

Where there’s a tie in the leaderboard, the first person to reach the point first will win. In the rare event that players are still tied, the next deciding factor will be the end time of the tournament where the point total was reached.

What is considered a daily for the Bounty King Daily Leaderboard?

The Bounty King Leaderboard will run daily from 14:00 p.m. - 13:59 p.m. (HKT).

Terms & Conditions

  1. Players must be aged 18 and above to participate in this promotion.
  2. Points can only be earned during Bounty Hunter Series tournaments.
  3. All currencies are quoted in US Dollars unless stated otherwise.
  4. Please note that tournament prize pool guarantees are subject to change and some amounts listed on this website may not be current. Please check the guarantee amounts listed in the tournament lobby of the Natural8 app for up-to-date prize pool information. Tournament prizes are awarded as per Natural8 standard payout procedure.
  5. Natural8 reserves the right to investigate any players suspected of fraudulent activity, and take any necessary action. In the event of multi-accounting, bonus hunting, or foul play, Natural8 reserves the right to forfeit any prize amounts that have been paid along with any remaining cash balances, without prior notice.
  6. Natural8 reserves the right to cancel or modify this tournament and its promotions at any time without prior notice, and at its sole and absolute discretion.
  7. This promotion is subject to the terms and conditions of the Natural8 website.
  8. Natural8 is an advocate of safer gambling. If you feel you might have an online gambling problem, do seek further advice or counseling at www.begambleaware.org

You May Also Like